This demonstration page uses our WeatherBlox Daily Observations layout. Learn more.

Left ArrowRight Arrow

44.89941, -97.11507

Hourly Observations for July 6, 2016

Temp ( °F °C ) Dew Point ( °F °C ) Humidity (%) Winds ( mph kmh ) Pressure ( in mb ) Visibility ( mi km ) Precip ( " mm )
12:53 am 00:53 Partly Cloudy 64 17.8 60 15.6 87 87 N 6 9 29.82 1010 10 16 0.00 0.00
1:53 am 01:53 Mostly Clear 64 17.8 60 15.6 87 87 NNW 7 11 29.80 1009 10 16 0.00 0.00
2:53 am 02:53 Clear 62 16.7 59 15 90 90 NNE 3 6 29.81 1010 10 16 0.00 0.00
3:53 am 03:53 Clear 60 15.6 57 13.9 90 90 Calm 29.80 1009 10 16 0.00 0.00
4:53 am 04:53 Clear 61 16.1 57 13.9 87 87 Calm 29.82 1010 10 16 0.00 0.00
5:35 am 05:35 Clear with Mist and Fog 58 14.4 57 13.9 97 97 NE 3 6 29.80 1009 2 3 0.00 0.00
5:40 am 05:40 Clear with Mist and Fog 57 13.9 56 13.3 96 96 Calm 29.83 1010 1 1 0.00 0.00
5:48 am 05:48 Clear with Mist and Fog 55 13 55 13 100 100 NE 3 6 29.83 1010 2 2 0.00 0.00
5:53 am 05:53 Sunny with Mist and Fog 56 13.3 55 12.8 97 97 Calm 29.81 1010 1 1 0.00 0.00
6:06 am 06:06 Sunny with Mist and Fog 57 13.9 56 13.3 96 96 Calm 29.83 1010 2 3 0.00 0.00
6:08 am 06:08 Sunny with Mist and Fog 57 13.9 56 13.3 96 96 NNW 3 6 29.83 1010 4 6 0.00 0.00
6:53 am 06:53 Sunny 58 14.4 55 12.8 90 90 N 3 6 29.83 1010 10 16 0.00 0.00
7:53 am 07:53 Sunny 65 18.3 57 13.9 76 76 ENE 5 7 29.80 1009 10 16 0.00 0.00
8:53 am 08:53 Sunny 69 20.6 58 14.4 68 68 NW 3 6 29.85 1011 10 16 0.00 0.00
9:53 am 09:53 Sunny 70 21.1 58 14.4 66 66 Calm 29.85 1011 10 16 0.00 0.00
10:53 am 10:53 Mostly Sunny 74 23.3 58 14.4 57 57 SE 9 15 29.84 1011 10 16 0.00 0.00
11:53 am 11:53 Sunny 76 24.4 58 14.4 54 54 S 5 7 29.88 1012 10 16 0.00 0.00
12:53 pm 12:53 Mostly Sunny 79 26.1 53 11.7 41 41 ESE 6 9 29.86 1011 10 16 0.00 0.00
1:53 pm 13:53 Mostly Cloudy 81 27.2 54 12.2 39 39 S 8 13 29.84 1011 10 16 0.00 0.00
2:53 pm 14:53 Sunny 82 27.8 53 11.7 37 37 S 9 15 29.84 1010 10 16 0.00 0.00
3:53 pm 15:53 Sunny 83 28.3 54 12.2 37 37 VRB 6 9 29.82 1010 10 16 0.00 0.00
4:53 pm 16:53 Sunny 82 27.8 53 11.7 37 37 SSE 7 11 29.81 1009 10 16 0.00 0.00
5:53 pm 17:53 Sunny 82 27.8 54 12.2 38 38 SE 8 13 29.81 1010 10 16 0.00 0.00
6:53 pm 18:53 Sunny 81 27.2 54 12.2 39 39 ESE 9 15 29.75 1007 10 16 0.00 0.00
7:53 pm 19:53 Sunny 78 25.6 58 14.4 50 50 ESE 9 15 29.77 1008 10 16 0.00 0.00
8:53 pm 20:53 Sunny 77 25 60 15.6 56 56 ESE 7 11 29.76 1008 10 16 0.00 0.00
9:53 pm 21:53 Clear 74 23.3 62 16.7 67 67 ENE 6 9 29.79 1009 10 16 0.00 0.03
10:53 pm 22:53 Cloudy with Light Rain 70 21.1 64 17.8 82 82 ENE 6 9 29.82 1010 10 16 0.02 0.51
11:04 pm 23:04 Cloudy with Nearby Thunderstorms 69 20.6 64 17.8 84 84 N 6 9 29.80 1009 9 14 0.02 0.51
11:20 pm 23:20 Cloudy with Thunderstorms 69 20.6 64 17.8 84 84 ENE 8 13 29.77 1008 7 11 0.06 1.52
11:30 pm 23:30 Cloudy with Heavy Rain 69 20.6 64 17.8 84 84 VRB 3 6 29.80 1009 5 8 0.10 2.54
11:42 pm 23:42 Cloudy with Nearby Thunderstorms 68 20 62 16.7 81 81 E 10 17 29.77 1008 3 5 0.17 4.32
11:49 pm 23:49 Cloudy with Thunderstorms 66 19 61 16 83 83 E 9 15 29.77 1008 6 10 0.18 4.57
11:53 pm 23:53 Cloudy with Thunderstorms 66 18.9 61 16.1 84 84 E 12 19 29.78 1009 7 11 0.19 4.83

Powered by AerisWeather